Lid_Strength_Index
-0 -0 0 3 11 12 15 13 9 10 10 7 6 7 8 7 9 12 2 1 0 0 -0 -1 -2 -2 -2 -2 -2 -2 -2 -2 -2 -2 -2 -2 -2 -2 -1 -1 -2 -2 -2 -2 -2 -2 -2 -2 -1
-0 0 2 7 13 16 15 10 11 9 7 6 6 6 8 9 5 4 3 1 -0 -0 -0 -0 -2 -2 -2 -2 -2 -2 -2 -2 -2 -2 -2 -2 -2 -2 -2 -2 -2 -2 -2 -2 -2 -1 -1 -1 -1
0 1 7 10 13 16 15 10 10 8 6 6 7 5 7 8 4 4 1 0 -0 0 -0 -0 -2 -2 -2 -2 -2 -2 -2 -2 -2 -2 -2 -2 -2 -2 -1 -1 -2 -2 -1 -1 -1 -1 -1 -1 -1
2 4 6 12 14 11 11 9 8 8 6 5 6 8 5 3 4 2 0 0 0 0 0 -1 -2 -2 -2 -2 -2 -2 -2 -2 -2 -2 -2 -2 -2 -1 -1 -1 -1 -1 -1 -1 -1 -1 -1 -1 -1
3 6 12 13 12 10 8 7 7 8 7 7 6 9 8 3 1 1 1 0 1 1 0 -0 -2 -2 -2 -2 -2 -2 -2 -2 -2 -2 -2 -2 -2 -1 -1 -1 -1 -1 -1 -1 -1 -1 -1 -1 -1
7 7 13 15 12 9 8 7 7 7 7 7 7 8 7 2 2 1 0 1 0 0 0 -0 -1 -2 -2 -2 -2 -2 -1 -1 -1 -1 -1 -1 -1 -1 -1 -1 -1 -1 -1 -1 -1 -1 -1 -1 -1
8 10 13 13 13 10 9 6 8 8 8 8 5 9 6 4 2 1 1 0 0 -0 0 0 -0 -1 -2 -2 -1 -1 -1 -1 -1 -1 -1 -1 -1 -1 -1 -1 -1 -1 -1 -1 -1 -1 -1 -1 -1
7 9 12 12 13 12 7 6 6 7 8 4 4 9 9 4 2 1 1 1 0 0 -0 1 0 0 -0 -0 -2 -1 -1 -1 -1 -1 -1 -1 -1 -1 -1 -2 -1 -1 -1 -1 -1 -1 -1 -1 -1
5 11 13 12 11 10 6 8 5 4 6 5 4 5 4 2 2 2 2 2 1 1 1 0 0 0 -0 -0 -1 -1 -1 -1 -1 -1 -1 -1 -1 -1 -1 -1 -1 -1 -1 -1 -1 -1 -1 -1 -1
8 12 11 8 8 9 7 7 7 7 7 7 6 4 3 3 3 4 4 3 3 2 1 0 -0 0 -0 -0 -0 -0 -0 -0 -0 -1 -0 -1 -1 -1 -1 -1 -1 -1 -1 -1 -1 -1 -1 -1 -1
8 11 8 8 7 6 7 7 5 7 9 7 7 6 4 4 4 4 3 3 3 2 1 1 1 0 1 0 0 1 0 0 -0 -1 -1 -1 -1 -0 -0 -1 -1 -1 -1 -1 -1 -1 -1 -1 -1
9 7 7 6 6 7 8 6 7 7 7 5 5 4 4 4 4 4 3 3 3 2 1 1 1 1 1 0 0 0 1 -0 -0 -0 -1 -0 -0 -0 -0 -0 -1 -1 -1 -1 -1 -1 -1 -1 -1
9 7 7 6 6 6 6 7 7 7 5 4 4 4 5 4 4 3 3 2 2 2 1 1 0 1 -0 0 0 -0 -0 -0 -0 -0 -1 -1 -0 -0 0 0 -0 -0 -1 -0 -0 -1 -1 -0 -0
7 7 7 6 7 6 8 7 7 6 4 5 5 5 5 4 4 3 3 3 2 2 1 1 1 0 0 0 -0 -0 -0 -0 -0 -0 -0 -1 -0 0 0 0 0 -0 -1 -1 -0 -0 -0 -0 -0
6 9 8 7 7 8 7 9 9 6 5 6 6 5 5 4 3 3 3 3 2 2 1 1 0 0 0 0 -0 -0 -0 -0 -0 -0 -1 -1 -0 -0 0 0 0 -0 -0 -0 -0 -0 -0 -0 -0
9 9 13 8 8 7 8 13 8 6 6 7 6 5 5 4 4 3 2 2 2 1 1 1 0 0 0 1 0 0 -0 0 0 0 -0 -0 -0 -0 -0 -0 0 -0 0 0 0 0 0 0 1
11 13 12 10 7 8 9 11 8 6 6 7 6 6 5 5 4 3 2 2 2 1 1 1 1 1 1 1 1 1 1 1 1 0 0 -0 -0 -0 0 0 0 0 1 1 0 0 0 1 1
13 12 10 12 9 9 10 10 8 7 6 7 6 6 5 5 4 4 3 2 2 1 1 1 1 1 1 1 2 2 1 -0 -1 0 0 -0 -0 -1 -1 0 0 1 1 0 0 1 0 1 1
12 12 12 10 8 10 10 10 9 7 7 7 7 6 6 5 4 4 4 2 2 2 2 1 2 2 1 2 2 2 1 1 0 0 -0 -0 -1 -1 -0 0 0 1 0 1 0 1 1 1 0
12 13 13 9 9 10 11 11 9 8 7 7 7 6 6 5 5 5 4 2 2 2 2 2 1 2 1 1 1 1 1 0 0 0 0 0 0 -0 0 0 1 0 0 1 1 1 1 1 1
15 13 11 11 10 9 11 12 11 8 7 6 6 5 5 5 5 6 4 3 2 2 2 2 1 2 1 1 1 0 0 1 1 1 1 1 1 1 -0 -0 1 0 -0 1 1 0 1 2 1
14 12 9 11 13 15 11 17 11 10 9 8 7 6 6 5 5 5 4 4 2 2 1 1 2 2 1 1 1 1 2 2 1 1 2 1 1 -0 -0 0 0 0 0 0 0 0 0 1 2
13 10 10 11 14 12 13 15 13 10 11 9 7 6 5 5 5 6 4 3 2 2 2 1 2 2 1 1 1 1 2 1 1 2 2 2 1 0 1 0 1 0 0 0 0 0 0 1 1
10 13 12 13 14 16 14 14 13 13 11 9 7 6 5 5 5 5 4 3 3 2 2 2 2 2 1 1 1 2 2 1 2 3 2 2 1 1 1 0 0 -0 0 1 0 0 1 2 2
12 15 18 17 16 16 14 14 13 10 9 8 8 7 5 5 5 5 5 4 3 3 2 2 2 2 1 1 1 1 1 1 1 1 3 2 1 1 1 0 1 1 0 0 1 2 2 2 2
13 14 17 19 19 17 14 15 12 9 8 7 6 6 5 5 5 5 5 4 3 3 3 2 2 2 2 1 1 1 1 1 1 1 1 1 1 0 -0 0 1 0 0 1 1 1 1 2 2
14 15 14 16 19 17 15 12 9 9 8 7 7 6 6 5 5 5 5 4 4 3 2 2 2 2 1 1 1 1 1 1 1 1 0 0 0 0 -0 0 1 0 0 1 2 1 2 3 2
13 12 15 16 18 17 15 14 13 10 9 8 8 7 6 5 5 5 5 4 3 3 2 2 2 2 1 1 1 1 1 1 0 0 1 1 0 0 0 1 1 1 1 1 1 1 3 3 4
12 13 16 16 17 17 18 16 10 9 8 7 7 7 6 5 5 5 5 4 3 3 2 2 2 2 2 1 1 1 1 1 1 1 1 1 1 1 0 1 1 1 1 2 1 2 3 4 4
12 15 16 16 16 18 17 15 11 8 7 7 6 6 6 5 5 5 4 5 4 3 2 2 2 2 2 1 1 1 1 1 1 1 1 0 2 2 1 1 1 1 1 2 2 2 4 4 5